Погода в Восходящем

Россия / Кемеровская область (Кузбасс)     54°41′02″N   86°04′29″E
темп.,
°C
ветер,
м/с
пор.,
м/с
влажн.,
%
обл.,
%
осадки,
мм/ч
давл.,
гПа
погр.,
м
1 марта, пн
пн101:00−11юв4995100 1.4 1025343
04:00−11юв5994100 0.3 1021256
07:00−9юв4895100 1.3 1018267
10:00−6ююв61095100 1.2 1013492
13:00−4ююз5895100 2.3 1011656
16:00−2юз61194100 2.3 1009938
19:00−2зюз71296100 3.1 1009614
22:00−4сз3597100 1.4 1009173
2 марта, вт
вт201:00−9с3496100 3.1 1010138
04:00−11ссз2396100 1.4 1010105
07:00−14ссз2396100 1.8 101288
10:00−14сз2395100 0.3 1013177
13:00−11зсз2392100 0.6 1015253
16:00−10сз2392100 0.3 1014250
19:00−12сз2296100 0.5 101522
22:00−14сз119785 0.1 101620
3 марта, ср
ср301:00−17сз1110084 0.2 101620
04:00−15ссз119794 0.1 101620
07:00−16сз119791 0.2 101820
10:00−14св009483 0.1 101894
13:00−10ююз128888 0.1 1019302
16:00−8ю128895 0.1 1019315
19:00−9юз359597 0.3 1021117
22:00−11юз379399 0.1 1024197
4 марта, чт
чт401:00−12ю379598 0.1 1025139
04:00−13ю5992100 0.1 1025245
07:00−15ююв5119190 0.1 1026209
10:00−10ю7149086 0.1 1024688
13:00−6ююз8138393 0.4 1022832
16:00−5ююз81483100 0.0 1021851
19:00−5ююз71586100 0.0 1020711
22:00−5ююз71679100 0.0 1019611
5 марта, пт
пт501:00−6ююз71678100 0.0 1018542
04:00−6ююз61776100 0.0 1017588
07:00−8ю41181100 0.0 1015245
10:00−6юв4983100 0.0 1012239
13:00−2юв2486100 0.1 1010231
16:00−2юз71387100 0.3 10111087
19:00−3зюз61485100 0.4 1015586
22:00−4юз6148649 0.1 1019663